Regional Weather Roundup
Issued by NWS Boston, MA

Home | Current Version | Previous Version | Text Only | Print | Product List | Glossary On
Versions: 1 2 3 4 5 6 7 8 9 10 11 12 13 14 15 16 17 18 19 20 21 22 23 24 25 26 27 28 29 30 31 32 33 34 35 36 37 38 39 40 41 42 43 44 45 46 47 48 49 50
000
ASUS41 KBOX 210910
RWRBOX

REGIONAL WEATHER ROUNDUP
NATIONAL WEATHER SERVICE TAUNTON MA
500 AM EDT TUE OCT 21 2014

NOTE:  "FAIR" INDICATES FEW OR NO CLOUDS BELOW 12,000 FEET WITH NO
SIGNIFICANT WEATHER AND/OR OBSTRUCTIONS TO VISIBILITY.  THE FOLLOWING
OBSERVATION LOCATIONS DO NOT REPORT PRESENT WEATHER...PROVINCETOWN...
SMITHFIELD...BLOCK ISLAND...KEENE...AND OXFORD.

MAZALL-211000-
EASTERN MASSACHUSETTS

CITY           SKY/WX    TMP DP  RH WIND       PRES   REMARKS
BOSTON         CLOUDY    51  48  89 SE5       29.98S
BEVERLY        CLOUDY    46  43  89 CALM      29.99R
LAWRENCE       CLOUDY    45  42  89 CALM      30.01R
BEDFORD        MOCLDY    42  40  92 CALM      29.96F
BLUE HILL        N/A     49  47  93 SE7       29.96F
NORWOOD        CLOUDY    44  43  96 CALM      29.97F
MARSHFIELD     NOT AVBL
PLYMOUTH       MOCLDY    47  47 100 CALM      29.98F
TAUNTON        MOCLDY    46  44  93 CALM      29.97S
NEW BEDFORD    MOCLDY    45  43  93 CALM      29.97S
$$

MAZALL-211000-
CAPE COD AND THE ISLANDS

CITY           SKY/WX    TMP DP  RH WIND       PRES   REMARKS
FALMOUTH       CLOUDY    50  48  93 CALM      29.98S
HYANNIS        MOCLDY    53  50  89 CALM      29.97F
CHATHAM        MOCLDY    56  51  84 SE5       30.00F
PROVINCETOWN   MOCLDY    54  48  82 E5        30.00F
NANTUCKET      MOCLDY    55  52  89 E8        29.99F
MARTHAS VNYRD  CLOUDY    57  51  80 S3        29.97F
$$

MAZALL-211000-
CENTRAL AND WESTERN MASSACHUSETTS

CITY           SKY/WX    TMP DP  RH WIND       PRES   REMARKS
WORCESTER      MOCLDY    46  41  82 E3        29.95F
FITCHBURG      CLOUDY    46  41  82 CALM      29.98S
ORANGE         CLOUDY    43  41  93 CALM      29.94F
SPRINGFIELD    CLOUDY    42  41  95 NE2       29.93F
WESTFIELD      MOCLDY    44  41  89 CALM      29.93F
NORTH ADAMS    CLOUDY    46  41  82 E5        29.92F
PITTSFIELD     CLOUDY    43  42  97 CALM      29.91F
$$

RIZALL-211000-
RHODE ISLAND

CITY           SKY/WX    TMP DP  RH WIND       PRES   REMARKS
PROVIDENCE     LGT RAIN  48  46  93 N5        29.97S FOG
NEWPORT        MOCLDY    55  51  86 NW3       29.96S
BLOCK ISLAND   CLOUDY    59  52  77 SW3       29.95F
SMITHFIELD     CLOUDY    48  41  76 CALM      29.96S
WESTERLY       MOCLDY    52  51  97 N3        29.95F
$$

CTZALL-211000-
CONNECTICUT

CITY           SKY/WX    TMP DP  RH WIND       PRES   REMARKS
BRADLEY INTL   PTCLDY    44  40  85 CALM      29.92F
HARTFORD       PTCLDY    46  43  89 VRB6      29.93F
BRIDGEPORT     CLOUDY    53  48  83 N3        29.91F
DANBURY        PTCLDY    42  31  64 CALM      29.92F
GROTON         CLOUDY    48  48 100 N5        29.93F
NEW HAVEN      MOCLDY    51  46  83 N5        29.92F
CHESTER        NOT AVBL
MERIDEN        MOCLDY    44  42  93 CALM      29.93S
WILLIMANTIC    PTCLDY    40  38  93 N3        29.95F
OXFORD         PTCLDY    45  39  81 CALM      29.92S
$$

MEZ002-015-021-024-NHZ003-005-008-011-012-014-VTZ005-008-211000-
NORTHERN NEW ENGLAND

CITY           SKY/WX    TMP DP  RH WIND       PRES   REMARKS
PORTLAND ME    CLOUDY    47  41  80 CALM      30.02R
BANGOR ME      CLOUDY    41  37  86 CALM      30.04R
CONCORD NH     CLOUDY    44  42  93 NE3       29.97F
MANCHESTER NH  CLOUDY    47  38  71 SE3       29.96F
NASHUA NH      CLOUDY    45  42  89 CALM      29.98F
PORTSMOUTH NH  CLOUDY    46  39  78 CALM      29.99R
JAFFREY NH     CLOUDY    42  40  92 CALM      29.96F
KEENE NH       CLOUDY    45  36  70 CALM      29.96S
BURLINGTON VT  LGT RAIN  46  41  82 E5        29.93S
MT. WASHINGTON SNOW      27  27 100 W30         N/A  VSB 0   WCI  10
$$

NYZ052-076-211000-
EASTERN NEW YORK

CITY           SKY/WX    TMP DP  RH WIND       PRES   REMARKS
ALBANY         LGT RAIN  48  44  86 CALM      29.90F
NEW YORK CITY  CLOUDY    55  45  68 S5        29.90F
$$

ANZALL-211000-
MARINE OBSERVATIONS

STATION/POSITION TIME  TEMP    WIND        PRES    VSBY  WAVE
                       AIR SEA DIR/SP/G                  HT/PER
                 (UTC) (F)     (DEG/KT/KT) (MB)    (MI)  (FT/S)
BOSTON BUOY      NOT AVBL
BUZZARDS BAY     NOT AVBL
NANTUCKET SOUND  NOT AVBL
MASS BAY-STELLWA NOT AVBL
ISLE OF SHOALS   NOT AVBL
S OF BLOCK IS    NOT AVBL
$$

......................KEY.........................
  SKY/WX - SKY CONDITION/PRESENT WEATHER
  TMP    - TEMPERATURE IN FAHRENHEIT
  DWPT   - DEWPOINT IN FAHRENHEIT
  RH     - RELATIVE HUMIDITY IN PERCENT
  WIND   - DIRECTION AND SPEED IN MPH
  PRES   - MEAN SEA LEVEL PRESSURE IN INCHES OF HG
  WCI    - WIND CHILL INDEX
  VSB    - VISIBILITY IN MILES
  HX     - HEAT INDEX
  TC     - TEMPERATURE IN CELSIUS
  VRB    - VARIABLE WIND DIRECTION
  N/A    - NOT AVAILABLE


USA.gov is the U.S. government's official web portal to all federal, state and local government web resources and services.